DateTimeUTC,F1_A11,F1_S11,BsB_S11,BsG_S11,BsR_S11,BbsB_S11,BbsG_S11,BbsR_S11,BaB_A11,BaG_A11,BaR_A11,Tu_S11,T_S11,Uu_S11,U_S11,P_S11,T1_A11
2021-12-15T18:00:00Z,00000200,21000000,,,,,,,-000.25,-000.06,-000.14,20.0,27.0,,00.0,0640.1,31.1
2021-12-15T18:01:00Z,00000200,21000000,,,,,,,-000.05,-000.28,-000.51,20.0,27.0,,00.0,0640.1,31.2
2021-12-15T18:02:00Z,00000200,21000000,,,,,,,-000.09,0000.33,0000.29,20.0,27.0,,00.0,0640.1,31.1
2021-12-15T18:03:00Z,00000200,61000000,,,,,,,0000.07,-000.09,0000.26,20.0,27.0,,00.0,0640.1,31.2
2021-12-15T18:04:00Z,00000200,41000000,-000.15,0000.20,-000.01,0000.15,-000.07,0000.28,0000.06,0000.05,0000.33,20.3,26.9,,00.0,0641.0,31.2
2021-12-15T18:05:00Z,00000200,01000000,-000.13,-000.36,0000.53,-000.38,0000.28,0000.04,0000.25,0000.23,-000.24,20.4,26.9,,00.0,0641.1,31.2
2021-12-15T18:06:00Z,00000200,01000000,0000.05,-000.09,0000.01,0000.01,-000.09,0000.20,-000.03,-000.00,-000.11,20.4,26.9,,00.0,0641.1,31.2
2021-12-15T18:07:00Z,00000200,01000000,0000.55,0000.17,0000.05,0000.26,-000.01,-000.01,0000.08,0000.24,0000.05,20.5,26.9,,00.0,0641.1,31.2
2021-12-15T18:08:00Z,00000200,01000000,0000.34,-000.14,0000.07,0000.05,-000.15,0000.04,0000.00,-000.10,-000.11,20.5,26.9,,00.0,0641.1,31.2
2021-12-15T18:09:00Z,00000200,01000000,0000.46,-000.01,0000.15,0000.24,-000.10,0000.35,0000.35,-000.10,0000.25,20.5,27.0,,00.0,0641.2,31.2
2021-12-15T18:10:00Z,00000200,01000000,0000.30,0000.07,0000.05,0000.36,0000.02,0000.38,-000.29,0000.17,-000.14,20.5,26.9,,00.0,0641.2,31.2
2021-12-15T18:11:00Z,00000200,01000000,0000.04,0000.32,-000.05,0000.06,0000.27,0000.04,0000.09,-000.00,0000.11,20.4,26.9,,00.0,0641.2,31.2
2021-12-15T18:12:00Z,00000200,01000000,-000.24,0000.13,-000.07,0000.04,-000.05,0000.19,-000.14,-000.34,-000.18,20.4,26.9,,00.0,0641.2,31.2
2021-12-15T18:13:00Z,00000200,01000000,-000.33,0000.11,-000.01,0000.30,-000.00,0000.02,-000.37,0000.02,0000.07,20.3,26.9,,00.0,0641.2,31.2
2021-12-15T18:14:00Z,00000200,01000000,-000.27,0000.02,0000.03,0000.31,0000.21,0000.16,0000.29,0000.18,0000.05,20.3,26.8,,00.0,0641.2,31.2
2021-12-15T18:15:00Z,00000200,01000000,-000.57,-000.18,0000.17,-000.96,-000.03,0000.08,0000.15,-000.40,-000.43,20.3,26.8,,00.0,0641.2,31.2
2021-12-15T18:16:00Z,00000200,01000000,0001.33,0000.26,-000.27,-000.56,-000.10,0000.31,-000.66,-000.02,0000.31,20.2,26.8,,00.0,0641.2,31.2
2021-12-15T18:17:00Z,00000200,01000000,-000.02,0000.26,-000.00,0000.25,-000.23,0000.18,0000.41,0000.38,-000.12,20.2,26.8,,00.0,0641.2,31.1
2021-12-15T18:18:00Z,00000200,01000000,0000.12,-000.17,0000.06,-000.26,0000.14,0000.17,-000.03,-000.18,-000.08,20.3,26.8,,00.0,0641.2,31.2
2021-12-15T18:19:00Z,00000200,01000000,-000.05,0000.02,0000.12,0000.66,0000.19,-000.19,-000.07,0000.09,0000.29,20.4,26.9,,00.0,0641.2,31.2
2021-12-15T18:20:00Z,00000200,01000000,0000.10,0000.09,0000.08,-000.34,0000.28,0000.27,0000.03,0000.11,0000.12,20.4,26.9,,00.0,0641.2,31.2
2021-12-15T18:21:00Z,00000200,01000000,0000.43,0000.30,-000.02,-000.54,-000.01,-000.04,0000.18,0000.17,0000.07,20.5,26.9,,00.0,0641.2,31.2
2021-12-15T18:22:00Z,00000200,01000000,-000.04,0000.28,0000.02,0000.09,-000.03,0000.10,0000.23,-000.12,-000.25,20.5,26.9,,00.0,0641.2,31.2
2021-12-15T18:23:00Z,00000200,01000000,0000.20,0000.64,0000.17,0000.05,-000.04,0000.07,0000.06,0000.29,0000.27,20.4,26.9,,00.0,0641.3,31.2
2021-12-15T18:24:00Z,00000200,01000000,-000.36,0000.45,0000.12,-000.30,-000.02,0000.51,0000.06,-000.45,-000.09,20.4,26.9,,00.0,0641.3,31.2
2021-12-15T18:25:00Z,00000200,01000000,0000.55,0000.30,0000.01,0000.22,-000.02,-000.02,-000.23,-000.07,-000.16,20.4,26.9,,00.0,0641.3,31.2
2021-12-15T18:26:00Z,00000200,01000000,0000.26,0000.08,0000.22,-000.48,0000.07,0000.20,-000.13,0000.09,-000.00,20.3,26.9,,00.0,0641.3,31.2
2021-12-15T18:27:00Z,00000200,01000000,0000.32,0000.44,-000.15,-000.08,0000.08,-000.13,-000.09,-000.03,0000.06,20.3,26.8,,00.0,0641.3,31.1
2021-12-15T18:28:00Z,00000200,01000000,-000.13,0000.14,0000.14,0000.50,-000.06,0000.43,0000.23,0000.18,-000.14,20.2,26.8,,00.0,0641.3,31.1
2021-12-15T18:29:00Z,00000200,01000000,-000.46,-000.01,0000.18,-000.50,-000.02,0000.17,-000.05,-000.12,-000.14,20.2,26.8,,00.0,0641.3,31.1
2021-12-15T18:30:00Z,00000200,01000000,0000.08,0000.00,0000.31,-000.34,0000.09,0000.25,-000.35,-000.52,0000.17,20.2,26.8,,00.0,0641.3,31.1
2021-12-15T18:31:00Z,00000200,01000000,0000.32,0000.55,0000.19,0000.03,0000.04,0000.30,0000.02,0000.15,-000.14,20.1,26.7,,00.0,0641.3,31.1
2021-12-15T18:32:00Z,00000200,01000000,0000.45,0000.36,-000.20,-000.38,0000.18,-000.09,0000.04,-000.15,0000.25,20.2,26.7,,00.0,0641.3,31.1
2021-12-15T18:33:00Z,00000200,01000000,0000.07,0000.17,0000.42,0000.13,-000.26,0000.37,-000.05,0000.14,0000.03,20.3,26.7,,00.0,0641.4,31.1
2021-12-15T18:34:00Z,00000200,01000000,0000.66,0000.24,0000.42,0000.50,-000.16,0000.23,0000.02,0000.25,-000.24,20.3,26.8,,00.0,0641.4,31.2
2021-12-15T18:35:00Z,00000200,01000000,-000.45,-000.12,0000.40,0000.22,-000.01,0000.45,-000.02,-000.20,0000.09,20.4,26.8,,00.0,0641.5,31.2
2021-12-15T18:36:00Z,00000200,01000000,-000.73,0000.16,-000.10,-000.62,-000.09,0000.27,-000.04,-000.01,0000.12,20.4,26.8,,00.0,0641.5,31.2
2021-12-15T18:37:00Z,00000200,01000000,0000.00,0000.34,0000.13,-000.29,-000.24,0000.02,-000.12,0000.13,-000.38,20.4,26.9,,00.0,0641.6,31.2
2021-12-15T18:38:00Z,00000200,01000000,0000.56,0000.32,-000.06,0000.40,-000.05,0000.23,0000.09,-000.04,-000.02,20.4,26.9,,00.0,0641.5,31.2
2021-12-15T18:39:00Z,00000200,01000000,0000.71,0000.22,0000.08,0000.32,-000.17,0000.60,0000.24,-000.00,-000.00,20.4,26.9,,00.0,0641.5,31.2
2021-12-15T18:40:00Z,00000200,01000000,0000.66,0000.11,-000.20,0000.40,0000.14,0000.02,-000.24,-000.43,-000.01,20.3,26.9,,00.0,0641.6,31.1
2021-12-15T18:41:00Z,00000200,01000000,0000.37,-000.03,-000.14,-000.12,-000.13,-000.11,-000.03,0000.46,0000.04,20.3,26.8,,00.0,0641.6,31.1
2021-12-15T18:42:00Z,00000200,01000000,0000.07,0000.09,0000.25,0000.37,-000.03,-000.01,-000.01,-000.35,-000.15,20.2,26.8,,00.0,0641.6,31.2
2021-12-15T18:43:00Z,00000200,01000000,-000.45,0000.15,-000.28,-000.09,-000.30,-000.51,0000.20,0000.24,0000.36,20.2,26.8,,00.0,0641.6,31.1
2021-12-15T18:44:00Z,00000200,01000000,-000.17,-000.37,0000.14,-000.04,-000.01,-000.14,-000.27,-000.19,0000.05,20.2,26.8,,00.0,0641.6,31.1
2021-12-15T18:45:00Z,00000200,01000000,0000.36,0000.26,0000.11,0000.07,0000.26,0000.25,-000.16,-000.21,-000.46,20.1,26.7,,00.0,0641.6,31.1
2021-12-15T18:46:00Z,00000200,01000000,0000.29,0000.25,0000.08,-000.77,-000.21,-000.01,0000.18,0000.10,0000.17,20.1,26.7,,00.0,0641.7,31.1
2021-12-15T18:47:00Z,00000200,01000000,0000.67,0000.11,0000.00,-000.08,0000.33,0000.26,-000.06,0000.07,0000.46,20.1,26.7,,00.0,0641.7,31.2
2021-12-15T18:48:00Z,00000200,01000000,-000.04,0000.12,-000.09,-000.70,-000.09,0000.28,0000.17,0000.34,-000.28,20.2,26.7,,00.0,0641.7,31.2
2021-12-15T18:49:00Z,00000200,01000000,-000.13,0000.10,0000.17,0000.59,-000.04,0000.30,0000.21,0000.11,0000.61,20.3,26.7,,00.0,0641.7,31.2
2021-12-15T18:50:00Z,00000200,01000000,-000.10,0000.29,0000.42,0000.22,-000.03,0000.05,-000.03,-000.04,-000.48,20.4,26.8,,00.0,0641.8,31.2
2021-12-15T18:51:00Z,00000200,01000000,0000.28,-000.10,0000.21,-000.45,-000.10,0000.20,-000.39,-000.16,-000.08,20.4,26.8,,00.0,0641.8,31.2
2021-12-15T18:52:00Z,00000200,01000000,0000.28,0000.04,-000.37,0000.48,-000.30,-000.13,0000.11,-000.16,0000.07,20.5,26.9,,00.0,0641.8,31.2
2021-12-15T18:53:00Z,00000200,01000000,0000.52,0000.31,0000.22,-000.23,0000.10,0000.16,0000.15,-000.45,-000.04,20.5,26.9,,00.0,0641.8,31.2
2021-12-15T18:54:00Z,00000200,01000000,0001.05,0000.15,0000.03,-000.03,0000.13,0000.19,-000.06,0000.62,-000.11,20.5,26.9,,00.0,0641.8,31.2
2021-12-15T18:55:00Z,00000200,01000000,0000.15,-000.09,-000.11,-000.68,0000.26,0000.11,-000.26,-000.44,0000.11,20.4,26.9,,00.0,0641.8,31.2
2021-12-15T18:56:00Z,00000200,01000000,0000.16,-000.03,-000.02,0000.41,0000.18,0000.02,0000.14,0000.38,-000.06,20.4,26.9,,00.0,0641.8,31.2
2021-12-15T18:57:00Z,00000200,41000000,,,,,,,0000.97,0000.44,0000.61,20.4,26.9,,00.0,0641.7,31.1
2021-12-15T18:58:00Z,00000200,61000000,,,,,,,-000.71,-000.12,-000.32,20.0,26.9,,00.0,0640.9,31.1
2021-12-15T18:59:00Z,00000200,21000000,,,,,,,-000.22,-000.46,-000.19,20.0,27.0,,00.0,0640.9,31.2
